Main page
METAR-TAF:

METAR-TAF

Airports :

Rochelle Municipal Airport (Koritz Field)

Rochelle, Illinois, United States

latitude: 41-53-35N, longitude: 089-04-42W, elevation: 781 ft

Current weather observation

The report was made 28 minutes ago, at 23:55 UTC
Calm wind
Temperature 86°F
Humidity 35%
Pressure 29.83 in. Hg
Visibility: 10 miles
Clear sky

METAR: KRPJ 132355Z AUTO 00000KT 10SM CLR 30/13 A2983 RMK AO2 T03000128 10321 20287

Time: 19:23 (00:23 UTC)


TAF: missing

Weather observations and forecasts of more than 4000 airports (METAR and TAF reports).

The available stations are represented by yellow and red dots on the map.

Hover mouse over dot to see the name of the station.

Then click to see weather observations and forecasts.

To change the map : click on the green buttons with a black cross to zoom in, on the green button with a dash to zoom out, or on the green arrows for adjacent maps.


METAR-TAF: